CSC3364 RJAA-ZGSZ

Flight info

Callsign CSC3364
Flight time N/A
Altitude 32000
Route REDEK Y60 BALIE/N0466F340 Y60 ISAKY CAMAS POTET A593 LAMEN/K0861F340 A593 AKARA/K0861S1040 A593 PUD A599 POU
Aircraft A321/M-SDE3FGHIRWY/LB1

Departure

Time 2026-05-01 13:08
Airport Narita International Airport (RJAA)

Arrival

Time N/A
Airport Shenzhen Bao'an International Airport (ZGSZ)
Time Latitude Longitude Altitude Speed Heading
2026-05-01 12:09 35.76747 140.37839 133 ft 0 kts 60°
2026-05-01 12:43 35.76743 140.37830 132 ft 2 kts 59°
2026-05-01 12:43 35.76736 140.37814 132 ft 2 kts 59°
2026-05-01 12:44 35.76728 140.37797 132 ft 2 kts 59°
2026-05-01 12:44 35.76720 140.37781 132 ft 2 kts 59°
2026-05-01 12:44 35.76703 140.37759 131 ft 2 kts 19°
2026-05-01 12:45 35.76678 140.37761 131 ft 0 kts 333°
2026-05-01 12:45 35.76672 140.37766 131 ft 0 kts 329°
2026-05-01 12:53 35.76655 140.37778 132 ft 2 kts 329°
2026-05-01 12:53 35.76643 140.37787 132 ft 2 kts 329°
2026-05-01 12:53 35.76630 140.37796 132 ft 2 kts 330°
2026-05-01 12:54 35.76624 140.37801 132 ft 0 kts 329°
2026-05-01 12:58 35.76627 140.37797 132 ft 1 kts 329°
2026-05-01 12:59 35.76693 140.37750 131 ft 8 kts 329°
2026-05-01 12:59 35.76741 140.37717 130 ft 6 kts 329°
2026-05-01 12:59 35.76832 140.37650 129 ft 3 kts 328°
2026-05-01 13:00 35.76855 140.37569 128 ft 7 kts 247°
2026-05-01 13:00 35.76869 140.37495 126 ft 11 kts 326°
2026-05-01 13:01 35.77027 140.37383 126 ft 12 kts 328°
2026-05-01 13:01 35.77081 140.37341 125 ft 11 kts 328°
2026-05-01 13:01 35.77245 140.37224 124 ft 14 kts 329°
2026-05-01 13:02 35.77328 140.37164 123 ft 10 kts 328°
2026-05-01 13:07 35.77172 140.37018 126 ft 10 kts 150°
2026-05-01 13:07 35.76944 140.37183 129 ft 72 kts 150°
2026-05-01 13:07 35.76312 140.37642 133 ft 136 kts 150°
2026-05-01 13:08 35.75332 140.38341 234 ft 179 kts 154°
2026-05-01 13:08 35.74266 140.39162 859 ft 183 kts 155°
2026-05-01 13:08 35.73175 140.39972 1522 ft 187 kts 157°
2026-05-01 13:08 35.72050 140.40787 2147 ft 192 kts 158°
2026-05-01 13:09 35.70863 140.41631 2563 ft 202 kts 159°
2026-05-01 13:09 35.69590 140.42529 2843 ft 216 kts 159°
2026-05-01 13:09 35.68246 140.43478 3119 ft 231 kts 159°
2026-05-01 13:09 35.66786 140.44507 3340 ft 251 kts 158°
2026-05-01 13:10 35.65223 140.45622 3668 ft 266 kts 157°
2026-05-01 13:10 35.63572 140.46805 4110 ft 277 kts 156°
2026-05-01 13:10 35.61908 140.48009 4812 ft 278 kts 158°
2026-05-01 13:10 35.60242 140.49208 5510 ft 279 kts 158°
2026-05-01 13:11 35.58572 140.50403 6182 ft 280 kts 158°
2026-05-01 13:11 35.56884 140.51605 6828 ft 283 kts 158°
2026-05-01 13:11 35.55185 140.52826 7432 ft 287 kts 158°
2026-05-01 13:11 35.53450 140.54073 8063 ft 290 kts 158°
2026-05-01 13:12 35.51673 140.55150 8679 ft 282 kts 174°
2026-05-01 13:12 35.49817 140.55116 9282 ft 260 kts 206°
2026-05-01 13:12 35.48366 140.54036 9858 ft 251 kts 228°
2026-05-01 13:12 35.47329 140.52316 10363 ft 252 kts 246°
2026-05-01 13:13 35.46879 140.50172 10638 ft 267 kts 266°
2026-05-01 13:13 35.46927 140.48070 10893 ft 281 kts 269°
2026-05-01 13:13 35.46984 140.45779 11148 ft 294 kts 269°
2026-05-01 13:13 35.47037 140.43192 11403 ft 307 kts 269°
2026-05-01 13:14 35.47087 140.40527 11634 ft 320 kts 269°
2026-05-01 13:14 35.47138 140.37773 11963 ft 329 kts 269°
2026-05-01 13:14 35.47189 140.34966 12501 ft 332 kts 269°
2026-05-01 13:14 35.47239 140.32134 13049 ft 334 kts 269°
2026-05-01 13:15 35.47288 140.29254 13579 ft 337 kts 269°
2026-05-01 13:15 35.47335 140.26373 14079 ft 340 kts 269°
2026-05-01 13:15 35.47384 140.23505 14568 ft 342 kts 269°
2026-05-01 13:15 35.47430 140.20570 15062 ft 345 kts 269°
2026-05-01 13:16 35.47477 140.17618 15520 ft 348 kts 269°
2026-05-01 13:16 35.47523 140.14633 15981 ft 351 kts 269°
2026-05-01 13:16 35.47568 140.11670 16423 ft 353 kts 269°
2026-05-01 13:17 35.47654 140.06007 17272 ft 358 kts 269°
2026-05-01 13:17 35.47699 140.02972 17717 ft 359 kts 269°
2026-05-01 13:18 35.47783 139.96796 18512 ft 365 kts 269°
2026-05-01 13:18 35.47823 139.93672 18886 ft 367 kts 268°
2026-05-01 13:18 35.47651 139.90588 19263 ft 368 kts 262°
2026-05-01 13:18 35.47161 139.87521 19636 ft 370 kts 256°
2026-05-01 13:19 35.46355 139.84476 19950 ft 374 kts 251°
2026-05-01 13:19 35.45428 139.81476 20288 ft 377 kts 250°
2026-05-01 13:19 35.43528 139.75468 20936 ft 382 kts 251°
2026-05-01 13:20 35.42571 139.72441 21256 ft 384 kts 251°
2026-05-01 13:20 35.41611 139.69414 21624 ft 385 kts 251°
2026-05-01 13:20 35.40630 139.66312 21920 ft 388 kts 251°
2026-05-01 13:21 35.38679 139.60139 22498 ft 393 kts 252°
2026-05-01 13:21 35.37691 139.57021 22944 ft 390 kts 251°
2026-05-01 13:21 35.36713 139.53957 23317 ft 390 kts 252°
2026-05-01 13:21 35.35748 139.50824 23491 ft 394 kts 255°
2026-05-01 13:22 35.34993 139.47578 23654 ft 396 kts 259°
2026-05-01 13:22 35.34501 139.44257 23929 ft 396 kts 264°
2026-05-01 13:22 35.34251 139.40941 24229 ft 395 kts 268°
2026-05-01 13:22 35.34079 139.37570 24415 ft 398 kts 268°
2026-05-01 13:23 35.33923 139.34186 24615 ft 401 kts 268°
2026-05-01 13:23 35.33767 139.30762 24830 ft 403 kts 268°
2026-05-01 13:23 35.33609 139.27353 25083 ft 404 kts 268°
2026-05-01 13:23 35.33447 139.23875 25323 ft 406 kts 268°
2026-05-01 13:24 35.33286 139.20456 25552 ft 407 kts 268°
2026-05-01 13:24 35.33120 139.16968 25776 ft 409 kts 268°
2026-05-01 13:24 35.32956 139.13519 26003 ft 410 kts 268°
2026-05-01 13:25 35.32618 139.06531 26362 ft 414 kts 268°
2026-05-01 13:25 35.32449 139.03027 26602 ft 415 kts 268°
2026-05-01 13:25 35.32278 138.99506 26790 ft 417 kts 268°
2026-05-01 13:25 35.32099 138.95934 27050 ft 416 kts 268°
2026-05-01 13:26 35.31925 138.92462 27348 ft 415 kts 268°
2026-05-01 13:26 35.31748 138.88939 27707 ft 412 kts 268°
2026-05-01 13:26 35.31572 138.85463 27995 ft 410 kts 268°
2026-05-01 13:26 35.31397 138.82002 28228 ft 410 kts 268°
2026-05-01 13:27 35.31217 138.78490 28525 ft 408 kts 268°
2026-05-01 13:27 35.31043 138.75047 28752 ft 408 kts 268°
2026-05-01 13:27 35.30685 138.68150 29279 ft 406 kts 268°
2026-05-01 13:28 35.30326 138.61293 29724 ft 404 kts 267°
2026-05-01 13:28 35.30149 138.57889 29900 ft 405 kts 267°
2026-05-01 13:29 35.29778 138.51036 30235 ft 405 kts 268°
2026-05-01 13:29 35.29411 138.44154 30490 ft 408 kts 268°
2026-05-01 13:30 35.28655 138.30264 31100 ft 410 kts 268°
2026-05-01 13:31 35.28275 138.23302 31348 ft 412 kts 268°
2026-05-01 13:31 35.27683 138.12805 31574 ft 414 kts 268°
2026-05-01 13:32 35.27284 138.05800 31590 ft 414 kts 268°
2026-05-01 13:33 35.26278 137.88350 31598 ft 412 kts 268°
2026-05-01 13:34 35.25391 137.74448 31612 ft 411 kts 267°
2026-05-01 13:35 35.24451 137.64061 31617 ft 412 kts 264°
2026-05-01 13:36 35.22458 137.53845 31623 ft 416 kts 257°
2026-05-01 13:36 35.19644 137.43858 31642 ft 415 kts 255°
2026-05-01 13:37 35.17744 137.37215 31648 ft 415 kts 256°
2026-05-01 13:37 35.15837 137.30571 31645 ft 415 kts 255°
2026-05-01 13:38 35.12985 137.20654 31668 ft 416 kts 255°